Weather History for KBVE - January, 2013

Change the Weather History Date:

Tuesday, January 15, 2013

  Actual Average Record
Temperature  
Mean Temperature 65 °F -  
Max Temperature 77 °F - - ()
Min Temperature 53 °F - - ()
Growing Degree Days 15 (Base 50)    
Moisture  
Dew Point 63 °F    
Average Humidity 97    
Maximum Humidity 100    
Minimum Humidity 84    
Precipitation  
Precipitation 0.00 in - - ()
Sea Level Pressure  
Sea Level Pressure 29.98 in    
Wind  
Wind Speed 6 mph (SE)    
Max Wind Speed 15 mph    
Max Gust Speed -    
Visibility 3 miles    
Events Fog , Rain    
T = Trace of Precipitation, MM = Missing Value Source: NWS Daily Summary

Daily Weather History Graph

Daily Weather History Graph

Search for Another Location

Airport or City:

Trip Planner

Search our weather history database for the weather conditions in past years. The results will help you decide how hot, cold, wet, or windy it might be!

Date:

Astronomy

Jan. 15, 2013 Rise Set
Actual Time 6:52 AM CST 5:21 PM CST
Civil Twilight 6:27 AM CST 5:47 PM CST
Nautical Twilight 5:58 AM CST 6:16 PM CST
Astronomical Twilight 5:29 AM CST 6:45 PM CST
Moon 9:22 AM CST (1/15) 9:45 PM CST (1/15)
Length of Visible Light 11h 20m
Length of Day
10h 28m
Waxing Crescent, 19% of the Moon is Illuminated
Jan 15
Waxing Crescent
Jan 18
First Quarter
Jan 26
Full
Feb 3
Last Quarter
Feb 10
New

Hourly Weather History & Observations

Time (CST) Temp. Dew Point Humidity Pressure Visibility Wind Dir Wind Speed Gust Speed Precip Events Conditions
12:51 AM 54.0 °F 54.0 °F 100% 30.05 in 1.2 mi NNE 6.9 mph - N/A   Overcast
1:24 AM 53.6 °F 53.6 °F 100% 30.04 in 0.8 mi NE 9.2 mph - N/A   Mist
1:51 AM 54.0 °F 54.0 °F 100% 30.04 in 0.8 mi NNE 5.8 mph - N/A   Mist
2:51 AM 55.0 °F 55.0 °F 100% 30.03 in 0.5 mi NNE 5.8 mph - N/A Fog Fog
3:51 AM 55.0 °F 55.0 °F 100% 30.02 in 0.2 mi NE 5.8 mph - N/A Fog Fog
4:51 AM 55.9 °F 55.9 °F 100% 30.02 in 0.2 mi Calm Calm - N/A Fog Fog
5:51 AM 57.0 °F 55.9 °F 96% 30.01 in 0.2 mi ENE 5.8 mph - N/A Fog Fog
6:51 AM 57.0 °F 57.0 °F 100% 30.02 in 0.2 mi NNE 3.5 mph - N/A Fog Fog
7:51 AM 57.0 °F 57.0 °F 100% 30.04 in 0.2 mi Variable 3.5 mph - N/A Fog Fog
8:51 AM 57.9 °F 57.9 °F 100% 30.04 in 0.2 mi ENE 4.6 mph - N/A Fog Fog
9:51 AM 59.0 °F 59.0 °F 100% 30.05 in 0.2 mi NNE 3.5 mph - N/A Fog Fog
10:51 AM 61.0 °F 61.0 °F 100% 30.03 in 0.2 mi Variable 3.5 mph - N/A Fog Fog
11:51 AM 62.1 °F 62.1 °F 100% 30.01 in 0.2 mi ENE 4.6 mph - N/A Fog Fog
12:05 PM 64.4 °F 64.4 °F 100% 29.99 in 1.0 mi East 4.6 mph - N/A   Overcast
12:19 PM 66.2 °F 64.4 °F 94% 29.98 in 3.0 mi ESE 5.8 mph - N/A   Mostly Cloudy
12:31 PM 69.8 °F 69.8 °F 100% 29.98 in 6.0 mi SSE 6.9 mph - N/A   Mostly Cloudy
12:51 PM 73.9 °F 71.1 °F 91% 29.97 in 8.0 mi South 8.1 mph - N/A   Partly Cloudy
1:51 PM 75.0 °F 71.1 °F 87% 29.94 in 8.0 mi South 15.0 mph - N/A   Clear
2:51 PM 77.0 °F 72.0 °F 84% 29.94 in 8.0 mi South 9.2 mph - N/A   Partly Cloudy
3:51 PM 72.0 °F 70.0 °F 93% 29.94 in 6.0 mi South 6.9 mph - N/A   Mostly Cloudy
4:49 PM 71.6 °F 68.0 °F 88% 29.95 in 10.0 mi South 4.6 mph - N/A   Overcast
4:51 PM 71.1 °F 68.0 °F 90% 29.95 in 10.0 mi South 4.6 mph - N/A   Overcast
5:51 PM 71.1 °F 70.0 °F 96% 29.95 in 7.0 mi South 8.1 mph - N/A   Overcast
6:25 PM 69.8 °F 69.8 °F 100% 29.95 in 8.0 mi South 9.2 mph - N/A   Overcast
6:35 PM 69.8 °F 69.8 °F 100% 29.95 in 7.0 mi South 9.2 mph - N/A   Overcast
6:47 PM 69.8 °F 68.0 °F 94% 29.95 in 8.0 mi South 10.4 mph - N/A   Overcast
6:51 PM 70.0 °F 68.0 °F 93% 29.95 in 8.0 mi South 9.2 mph - N/A   Overcast
7:51 PM 69.1 °F 68.0 °F 96% 29.95 in 7.0 mi SSW 9.2 mph - N/A   Overcast
8:35 PM 69.8 °F 69.8 °F 100% 29.95 in 5.0 mi SSW 6.9 mph - N/A   Overcast
8:51 PM 69.1 °F 68.0 °F 96% 29.96 in 4.0 mi SSW 5.8 mph - N/A   Overcast
9:09 PM 69.8 °F 68.0 °F 94% 29.96 in 4.0 mi SW 3.5 mph - N/A   Overcast
9:35 PM 64.4 °F 64.4 °F 100% 29.96 in 1.8 mi Calm Calm - N/A   Overcast
9:47 PM 64.4 °F 64.4 °F 100% 29.96 in 2.5 mi NW 5.8 mph - N/A   Overcast
9:51 PM 62.1 °F 62.1 °F 100% 29.96 in 1.5 mi NNW 12.7 mph - N/A   Overcast
10:03 PM 60.8 °F 60.8 °F 100% 29.95 in 0.8 mi NNW 5.8 mph - N/A   Mist
10:51 PM 59.0 °F 59.0 °F 100% 29.96 in 0.5 mi NNW 4.6 mph - N/A Fog Fog
11:29 PM 59.0 °F 59.0 °F 100% 29.95 in 1.0 mi NNW 5.8 mph - 0.00 in Rain Light Rain
11:41 PM 57.2 °F 57.2 °F 100% 29.95 in 0.8 mi Variable 5.8 mph - 0.00 in   Mist
11:51 PM 59.0 °F 59.0 °F 100% 29.95 in 0.8 mi NNW 6.9 mph - 0.00 in   Mist